[[{"header":{"parameterUnit":"m.s-1","parameterCategory":1,"la1":30.2991,"la2":30.254,"lo1":-89.0895,"lo2":-89.0444,"dy":0.0017,"dx":0.0017,"nx":28,"ny":28,"refTime":"2023-10-03T03:00:00:Z","depth":0,"parameterNumber":2,"parameterNumberName":"U-component_of_WINDS"},"data":[0,0,0,0,0,0,0,0,0,0,0,0,0,0,0,0,0,0,0,0,0,0,0,0,0,0,0,0,0,0,0,0,0,0,0,0,0,0,0,0,0,0,0,0,0,0,0,0,0,0,0,0,0,0,0,0,0,0,-3.0287,-3.0287,0,-3.026,-3.026,-3.026,-3.0142,-3.014,-3.0137,-3.0134,-3.0108,-3.011,-3.0112,0,0,0,0,0,0,0,0,0,0,0,0,0,-3.024,-3.0241,-3.0287,-3.0287,-3.0287,-3.026,-3.026,-3.026,-3.0143,-3.014,-3.0136,-3.0133,-3.0108,-3.011,-3.0112,0,0,0,0,0,0,0,0,0,0,0,0,0,-3.0242,-3.0242,-3.0288,-3.0225,-3.0219,-3.0261,-3.026,-3.026,-3.0144,-3.0139,-3.0135,-3.0131,-3.0107,-3.0109,-3.0112,-3.0212,0,0,-3.0121,-3.0122,0,0,0,0,0,0,0,0,-3.0242,-3.0243,-3.0235,-3.023,-3.0223,-3.02,-3.0233,-3.0244,-3.0145,-3.0172,-3.0134,-3.0129,-3.0142,-3.0142,-3.0146,-3.021,-3.0209,-3.0121,-3.0123,-3.0124,-3.0125,0,0,0,0,0,0,0,-3.0242,-3.0244,-3.0277,-3.0235,-3.0228,-3.0199,-3.0195,-3.0235,-3.0181,-3.017,-3.0161,-3.0159,-3.0138,-3.0144,-3.0144,-3.0209,-3.0121,-3.0123,-3.0125,-3.0126,-3.0354,-3.0358,0,0,0,0,0,0,-3.025,-3.0245,-3.0278,-3.0276,-3.0222,-3.0204,-3.0199,-3.0212,-3.018,-3.0171,-3.0163,-3.0154,-3.0141,-3.0141,-3.0143,-3.0257,-3.0124,-3.0126,-3.0128,-3.035,-3.0355,-3.036,0,0,0,0,0,0,-3.0249,-3.0254,-3.0279,-3.0258,-3.0259,-3.0209,-3.0225,-3.0214,-3.0218,-3.0175,-3.0165,-3.0178,-3.0138,-3.0139,-3.0195,-3.0254,-3.0128,-3.013,-3.0345,-3.0351,-3.0357,-3.0486,0,0,0,0,0,0,-3.0249,-3.0255,-3.0291,-3.026,-3.026,-3.0331,-3.0228,-3.0216,-3.0223,-3.0212,-3.0186,-3.0178,-3.0134,-3.0192,-3.0198,-3.0256,-3.0132,-3.0339,-3.0348,-3.0355,-3.0476,-3.0496,-3.0513,0,0,0,0,0,-3.0247,-3.0329,-3.0294,-3.0298,-3.0305,-3.0335,-3.0335,-3.0283,-3.0229,-3.0265,-3.0238,-3.0179,-3.0247,-3.0199,-3.0205,-3.0264,-3.0335,-3.0345,-3.0355,-3.0468,-3.0492,-3.0512,0,0,0,0,0,0,-3.0369,-3.0323,-3.0284,-3.0357,-3.0351,-3.0315,-3.0359,-3.031,-3.0319,-3.0307,-3.0243,-3.0238,-3.0304,-3.029,-3.0236,-3.0359,-3.0281,-3.0293,-3.0365,-3.0388,-3.0406,-3.0407,-3.0135,0,0,0,0,0,-3.0404,-3.0431,-3.039,-3.0459,-3.0458,-3.041,-3.0421,-3.0381,-3.0372,-3.0368,-3.0344,-3.0338,-3.0358,-3.0372,-3.0388,-3.0474,-3.0467,-3.0518,-3.0537,-3.0552,-3.0562,-3.0606,-3.0628,-3.0392,-3.0392,-3.0392,0,0,-3.0477,-3.0456,-3.0477,-3.0483,-3.0473,-3.0503,-3.0408,-3.0444,-3.0466,-3.0374,-3.0425,-3.0408,-3.0397,-3.0468,-3.0498,-3.0458,-3.0626,-3.0565,-3.0577,-3.0579,-3.0619,-3.0641,-3.0661,-3.0399,-3.0398,-3.0397,0,0,-3.0625,-3.0612,-3.0668,-3.066,-3.0646,-3.0614,-3.0628,-3.06,-3.0585,-3.0635,-3.0567,-3.0593,-3.0628,-3.0623,-3.0625,-3.0774,-3.072,-3.0781,-3.0877,-3.0921,-3.0939,-3.0955,-3.1007,-3.1027,-3.0792,-3.0792,-3.0792,0,-3.0717,-3.0759,-3.0703,-3.0743,-3.0748,-3.0667,-3.0723,-3.0718,-3.0711,-3.0717,-3.0672,-3.0716,-3.0703,-3.0771,-3.0808,-3.0813,-3.0826,-3.0782,-3.0941,-3.0957,-3.0971,-3.102,-3.104,-3.0799,-3.0799,-3.0798,-3.0797,0,-3.0873,-3.0904,-3.0951,-3.0945,-3.0956,-3.1004,-3.0955,-3.0973,-3.0934,-3.0906,-3.0959,-3.0941,-3.0952,-3.0966,-3.0927,-3.103,-3.1005,-3.0952,-3.0873,-3.1002,-3.1047,-3.1065,-3.081,-3.0807,-3.0805,-3.0803,0,0,-3.1095,-3.1059,-3.1077,-3.1073,-3.1053,-3.1076,-3.1122,-3.1132,-3.1148,-3.1147,-3.1183,-3.1216,-3.1167,-3.1169,-3.113,-3.1169,-3.1287,-3.1111,-3.1109,-3.1143,-3.1398,-3.1437,-3.146,-3.1252,-3.1256,-3.1259,-3.1399,0,-3.1235,-3.1309,-3.126,-3.1342,-3.137,-3.1294,-3.1334,-3.1326,-3.1303,-3.1323,-3.1297,-3.1321,-3.1255,-3.1256,-3.1292,-3.1265,-3.1337,-3.1255,-3.1285,-3.1287,-3.1288,-3.1483,-3.1524,-3.1658,-3.1416,-3.1419,-3.1421,0,-3.1408,-3.1414,-3.1499,-3.1474,-3.1483,-3.152,-3.1525,-3.1546,-3.1537,-3.1517,-3.1521,-3.1472,-3.1515,-3.1439,-3.1498,-3.1443,-3.1453,-3.1443,-3.1446,-3.1446,-3.1361,-3.1487,-3.1699,-3.1719,-3.1449,-3.1446,-3.1444,0,-3.1559,-3.1589,-3.1643,-3.1643,-3.1616,-3.1643,-3.1633,-3.1619,-3.1629,-3.1635,-3.164,-3.1652,-3.1658,-3.1668,-3.1624,-3.1572,-3.1689,-3.1608,-3.1673,-3.1675,-3.1699,-3.1698,-3.1915,-3.1709,-3.1709,-3.1708,-3.1708,0,-3.172,-3.1775,-3.1711,-3.1744,-3.1804,-3.1748,-3.1809,-3.1791,-3.178,-3.1809,-3.1745,-3.1774,-3.1715,-3.1738,-3.1704,-3.1758,-3.1761,-3.1747,-3.1737,-3.1751,-3.1753,-3.1755,-3.1745,-3.1714,-3.1712,-3.1711,-3.1711,0,-3.1898,-3.1858,-3.1912,-3.1882,-3.1876,-3.1921,-3.1895,-3.1926,-3.1898,-3.1936,-3.1942,-3.19,-3.1924,-3.1881,-3.19,-3.1877,-3.1952,-3.1929,-3.1955,-3.1948,-3.2014,-3.2008,-3.2239,-3.2266,-3.2045,-3.2047,-3.2049,0,-3.2002,-3.2043,-3.2017,-3.2032,-3.2026,-3.205,-3.206,-3.2007,-3.202,-3.2013,-3.2044,-3.2063,-3.2075,-3.2117,-3.2088,-3.2103,-3.2078,-3.2158,-3.208,-3.2094,-3.2078,-3.2076,-3.2079,-3.2174,-3.2176,-3.2179,-3.218,0,-3.2192,-3.217,-3.2186,-3.2196,-3.2209,-3.2214,-3.2215,-3.2231,-3.2175,-3.2193,-3.2216,-3.2226,-3.2245,-3.2265,-3.2273,-3.2263,-3.2213,-3.2206,-3.2221,-3.2236,-3.2249,-3.2242,-3.1998,-3.22,-3.2198,-3.2197,-3.2196,-3.2195,-3.2335,-3.2367,-3.2354,-3.2375,-3.237,-3.2372,-3.2399,-3.2376,-3.2394,-3.2405,-3.2374,-3.2405,-3.2396,-3.2401,-3.2397,-3.2421,-3.2385,-3.2408,-3.2414,-3.242,-3.243,-3.2247,-3.2422,-3.2422,-3.2421,-3.2421,-3.242,0,-3.252,-3.2508,-3.2527,-3.253,-3.2547,-3.2499,-3.2497,-3.2514,-3.2542,-3.2538,-3.2551,-3.2579,-3.2597,-3.2571,-3.2586,-3.261,-3.2588,-3.2616,-3.2612,-3.2611,-3.2461,-3.2446,-3.2633,-3.2633,-3.2633,-3.2633,-3.2633,-3.2633,-3.2617,-3.2669,-3.2647,-3.2696,-3.2684,-3.2714,-3.2717,-3.272,-3.2715,-3.2749,-3.2764,-3.2747,-3.2734,-3.2747,-3.2763,-3.2754,-3.2762,-3.2798,-3.2782,-3.2642,-3.2621,-3.2601,-3.2586,-3.2801,-3.2801,-3.293,-3.2931,-3.2932]},{"header":{"parameterUnit":"m.s-1","parameterCategory":1,"la1":30.2991,"la2":30.254,"lo1":-89.0895,"lo2":-89.0444,"dy":0.0017,"dx":0.0017,"nx":28,"ny":28,"refTime":"2023-10-03T03:00:00:Z","depth":0,"parameterNumber":3,"parameterNumberName":"V-component_of_WINDS"},"data":[0,0,0,0,0,0,0,0,0,0,0,0,0,0,0,0,0,0,0,0,0,0,0,0,0,0,0,0,0,0,0,0,0,0,0,0,0,0,0,0,0,0,0,0,0,0,0,0,0,0,0,0,0,0,0,0,0,0,1.9239,1.9239,0,1.9279,1.928,1.928,1.9331,1.9332,1.9333,1.9334,1.9372,1.9372,1.9372,0,0,0,0,0,0,0,0,0,0,0,0,0,1.9204,1.9204,1.9239,1.924,1.924,1.9279,1.928,1.928,1.9331,1.9332,1.9333,1.9334,1.9372,1.9372,1.9372,0,0,0,0,0,0,0,0,0,0,0,0,0,1.9229,1.9204,1.9239,1.927,1.9273,1.9279,1.928,1.928,1.9331,1.9332,1.9334,1.9335,1.9372,1.9372,1.9372,1.9349,0,0,1.9373,1.9373,0,0,0,0,0,0,0,0,1.9228,1.923,1.9265,1.9268,1.9272,1.9302,1.9281,1.9303,1.9331,1.9309,1.9334,1.9335,1.9347,1.935,1.9354,1.9351,1.9353,1.9373,1.9374,1.9374,1.9374,0,0,0,0,0,0,0,1.9226,1.9229,1.9255,1.9266,1.927,1.9282,1.9286,1.9286,1.932,1.9311,1.9315,1.9319,1.9349,1.9354,1.9356,1.9353,1.9373,1.9374,1.9374,1.9374,1.9334,1.9332,0,0,0,0,0,0,1.922,1.9227,1.9254,1.9256,1.9252,1.9281,1.9287,1.9291,1.9321,1.9327,1.9318,1.9321,1.9353,1.9355,1.9357,1.9332,1.9374,1.9374,1.9374,1.9335,1.9333,1.9332,0,0,0,0,0,0,1.9219,1.9222,1.9252,1.9243,1.9247,1.928,1.9285,1.9291,1.9296,1.9326,1.9332,1.9316,1.9354,1.9357,1.9351,1.9334,1.9374,1.9374,1.9336,1.9334,1.9333,1.9282,0,0,0,0,0,0,1.9218,1.9221,1.9213,1.9242,1.9248,1.9246,1.9284,1.9291,1.9296,1.9301,1.9326,1.9331,1.9355,1.935,1.9352,1.9335,1.9375,1.9338,1.9336,1.9333,1.9285,1.9279,1.9273,0,0,0,0,0,1.9216,1.9196,1.9212,1.9215,1.9239,1.9245,1.9248,1.9276,1.9295,1.9287,1.9307,1.9331,1.9336,1.9349,1.9351,1.9335,1.9339,1.9336,1.9333,1.9288,1.928,1.9273,0,0,0,0,0,0,1.9163,1.9201,1.9219,1.9208,1.9223,1.9253,1.9244,1.9267,1.9276,1.9279,1.9313,1.9319,1.9309,1.9322,1.9336,1.9314,1.9341,1.9339,1.9306,1.9299,1.9293,1.9289,1.9375,0,0,0,0,0,1.915,1.9153,1.9185,1.9173,1.9179,1.921,1.9214,1.9235,1.9251,1.9257,1.9277,1.9291,1.9296,1.9298,1.9304,1.9288,1.9294,1.9278,1.9271,1.9266,1.9263,1.9255,1.9248,1.9323,1.9323,1.9323,0,0,1.9123,1.9144,1.9143,1.9163,1.9177,1.9178,1.9215,1.9215,1.9216,1.9257,1.9253,1.9268,1.9286,1.9275,1.9271,1.9285,1.9244,1.9262,1.9258,1.9258,1.9251,1.9244,1.9238,1.9321,1.9321,1.9321,0,0,1.9074,1.9091,1.9082,1.9096,1.9118,1.9139,1.9136,1.9164,1.9176,1.9173,1.9204,1.9205,1.9213,1.9225,1.9232,1.9189,1.9211,1.919,1.9157,1.9149,1.9143,1.9138,1.9122,1.9116,1.9187,1.9187,1.9187,0,1.9038,1.9042,1.9075,1.9073,1.908,1.9119,1.911,1.9122,1.9143,1.9147,1.9163,1.9175,1.9189,1.9182,1.9171,1.9176,1.9174,1.9187,1.9141,1.9137,1.9132,1.9117,1.9111,1.9184,1.9185,1.9185,1.9185,0,1.8996,1.8998,1.8988,1.901,1.9016,1.9011,1.9042,1.9044,1.9065,1.9084,1.9081,1.91,1.9111,1.9111,1.9131,1.9106,1.9114,1.9135,1.9163,1.9122,1.9108,1.9103,1.918,1.9181,1.9182,1.9183,0,0,1.8912,1.8954,1.8949,1.896,1.8987,1.8989,1.8985,1.8998,1.8999,1.9013,1.901,1.9016,1.9037,1.9044,1.9066,1.9059,1.9023,1.9081,1.9082,1.9069,1.8996,1.8979,1.8972,1.9039,1.9038,1.9037,1.8995,0,1.8868,1.8865,1.8895,1.8883,1.8886,1.8924,1.8921,1.8936,1.8954,1.8959,1.8978,1.8982,1.9009,1.9014,1.9009,1.9028,1.9009,1.9032,1.9035,1.9035,1.9028,1.8965,1.8947,1.8906,1.899,1.8989,1.8988,0,1.8815,1.8828,1.8817,1.8846,1.8848,1.8844,1.8858,1.8862,1.8881,1.8894,1.8904,1.8929,1.8927,1.8954,1.8951,1.8966,1.8969,1.8979,1.8978,1.8978,1.9008,1.8963,1.8894,1.8887,1.898,1.8981,1.8982,0,1.8755,1.8769,1.8765,1.8773,1.8806,1.8803,1.8816,1.8836,1.8842,1.8854,1.8858,1.8869,1.8874,1.8882,1.8909,1.8926,1.8902,1.8932,1.8912,1.8911,1.8904,1.8904,1.8833,1.8908,1.8908,1.8908,1.8909,0,1.8702,1.8693,1.8738,1.8735,1.8727,1.8761,1.8752,1.8769,1.8787,1.8787,1.8821,1.882,1.8857,1.886,1.8881,1.8875,1.8877,1.8887,1.8893,1.8883,1.8882,1.8885,1.8888,1.8907,1.8907,1.8907,1.8908,0,1.8632,1.8662,1.8659,1.8692,1.87,1.8692,1.8719,1.8717,1.8738,1.8738,1.874,1.8772,1.8778,1.8807,1.8818,1.8833,1.8818,1.883,1.8812,1.8816,1.8794,1.8795,1.8722,1.8713,1.8794,1.8794,1.8793,0,1.8595,1.859,1.8622,1.8626,1.8638,1.8643,1.8649,1.8683,1.8688,1.871,1.8705,1.8714,1.8722,1.8729,1.8753,1.8762,1.8774,1.8748,1.8775,1.8766,1.8772,1.8772,1.8771,1.8741,1.874,1.8739,1.8739,0,1.8526,1.8542,1.8551,1.8564,1.8571,1.8584,1.8598,1.8598,1.8636,1.864,1.8647,1.8654,1.8667,1.8674,1.8688,1.8701,1.8725,1.873,1.8726,1.8715,1.8705,1.8709,1.8795,1.8731,1.8732,1.8732,1.8733,1.8733,1.8472,1.8469,1.8491,1.85,1.8514,1.8527,1.8527,1.8549,1.8555,1.8569,1.8589,1.8593,1.8613,1.8634,1.8645,1.8648,1.8662,1.8656,1.8654,1.8652,1.8647,1.8706,1.865,1.8651,1.8651,1.8651,1.8651,0,1.8404,1.8421,1.8429,1.8448,1.8454,1.8479,1.8496,1.85,1.8503,1.852,1.8528,1.8536,1.8544,1.8569,1.8579,1.8577,1.8588,1.8578,1.8578,1.8581,1.8634,1.8636,1.8569,1.8569,1.8569,1.8569,1.8569,1.8569,1.837,1.8366,1.8384,1.8388,1.8405,1.841,1.8418,1.8429,1.8443,1.845,1.8458,1.8475,1.8494,1.8507,1.8515,1.8522,1.8524,1.8509,1.852,1.8569,1.8577,1.8584,1.8586,1.851,1.851,1.8466,1.8466,1.8466]}]]